This is the latest recevied weather packets stored in our database for station/object K5VP. If no packets are shown the sender has not sent any weather packets the latest 10 day(s).
| Time | Temp. | Humidity | Pressure | Rain* | Wind** | Luminosity | Snow |
|---|---|---|---|---|---|---|---|
| 1777419006 | 20° C | 90% | 1012.5 hPa | 0 mm | - | - | - |
| 1777418693 | 20.56° C | 89% | 1012 hPa | 0 mm | - | - | - |
| 1777418396 | 20.56° C | 90% | 1013 hPa | 0 mm | - | - | - |
| 1777418099 | 21.11° C | 91% | 1012.7 hPa | 0 mm | - | - | - |
| 1777417807 | 21.67° C | 92% | 1012.7 hPa | 1.02 mm | - | - | - |
| 1777417489 | 22.22° C | 93% | 1011.7 hPa | 1.52 mm | - | - | - |
| 1777417184 | 22.22° C | 93% | 1012.1 hPa | 2.03 mm | - | - | - |
| 1777416878 | 22.22° C | 93% | 1011.3 hPa | 2.03 mm | - | - | - |
| 1777416569 | 22.22° C | 93% | 1011.1 hPa | 2.54 mm | - | - | - |
| 1777416256 | 22.22° C | 93% | 1012.2 hPa | 1.78 mm | - | - | - |
| 1777415946 | 22.78° C | 92% | 1012.8 hPa | 2.54 mm | - | - | - |
| 1777415647 | 22.78° C | 92% | 1013.6 hPa | 2.54 mm | - | - | - |
| 1777415346 | 22.78° C | 92% | 1013.8 hPa | 0 mm | - | - | - |
| 1777415039 | 22.78° C | 91% | 1013.4 hPa | 0 mm | - | - | - |
| 1777414731 | 22.78° C | 90% | 1012.9 hPa | 0 mm | - | - | - |
| 1777414423 | 22.78° C | 90% | 1012.7 hPa | 0 mm | - | - | - |
| 1777414126 | 22.78° C | 89% | 1012.4 hPa | 0 mm | - | - | - |
| 1777413817 | 23.33° C | 89% | 1012.6 hPa | 0 mm | - | - | - |
| 1777413519 | 23.33° C | 88% | 1012.4 hPa | 0 mm | - | - | - |
| 1777413209 | 23.33° C | 88% | 1012.4 hPa | 0 mm | - | - | - |
| 1777412913 | 23.33° C | 87% | 1012.4 hPa | 0 mm | - | - | - |
| 1777412614 | 23.33° C | 87% | 1012.8 hPa | 0 mm | - | - | - |
| 1777412320 | 23.89° C | 86% | 1012.9 hPa | 0 mm | - | - | - |
| 1777412008 | 23.89° C | 86% | 1012.8 hPa | 0 mm | - | - | - |
| 1777411713 | 23.89° C | 85% | 1013 hPa | 0 mm | - | - | - |
* Rain latest hour (hover to see other rain measurements)
** Current wind speed in m/s (hover to see current wind gust speed)